This is the latest recevied weather packets stored in our database for station/object KK4MOR. If no packets are shown the sender has not sent any weather packets the latest 10 day(s).
| Time | Temp. | Humidity | Pressure | Rain* | Wind** | Luminosity | Snow |
|---|---|---|---|---|---|---|---|
| 1777924851 | 24.44° C | 49% | 1010.5 hPa | 0 mm | - | - | - |
| 1777923946 | 24.44° C | 49% | 1010.8 hPa | 0 mm | - | - | - |
| 1777923042 | 24.44° C | 48% | 1011.1 hPa | 0 mm | - | - | - |
| 1777922152 | 23.89° C | 50% | 1011.1 hPa | 0 mm | - | - | - |
| 1777921244 | 24.44° C | 49% | 1011.4 hPa | 0 mm | - | - | - |
| 1777920348 | 23.89° C | 53% | 1011.5 hPa | 0 mm | - | - | - |
| 1777919441 | 23.33° C | 51% | 1011.8 hPa | 0 mm | - | - | - |
| 1777918532 | 23.89° C | 50% | 1011.9 hPa | 0 mm | - | - | - |
| 1777917630 | 23.33° C | 52% | 1012.1 hPa | 0 mm | - | - | - |
| 1777916727 | 23.33° C | 52% | 1012.1 hPa | 0 mm | - | - | - |
| 1777915826 | 23.33° C | 53% | 1012.4 hPa | 0 mm | - | - | - |
| 1777914920 | 22.22° C | 54% | 1012.5 hPa | 0 mm | - | - | - |
| 1777914017 | 22.22° C | 54% | 1012.7 hPa | 0 mm | - | - | - |
| 1777913115 | 21.67° C | 56% | 1013 hPa | 0 mm | - | - | - |
| 1777912223 | 21.67° C | 55% | 1013.2 hPa | 0 mm | - | - | - |
| 1777911314 | 21.67° C | 57% | 1013.5 hPa | 0 mm | - | - | - |
| 1777910405 | 21.11° C | 59% | 1013.6 hPa | 0 mm | - | - | - |
| 1777909505 | 20.56° C | 58% | 1013.8 hPa | 0 mm | - | - | - |
| 1777908662 | 20° C | 59% | 1013.9 hPa | 0 mm | - | - | - |
| 1777907757 | 19.44° C | 61% | 1014 hPa | 0 mm | - | - | - |
| 1777906861 | 18.89° C | 60% | 1014 hPa | 0 mm | - | - | - |
| 1777905963 | 18.33° C | 59% | 1014.1 hPa | 0 mm | - | - | - |
| 1777905048 | 17.78° C | 61% | 1014.3 hPa | 0 mm | - | - | - |
| 1777904142 | 17.22° C | 63% | 1014.4 hPa | 0 mm | - | - | - |
| 1777903243 | 16.11° C | 65% | 1014.5 hPa | 0 mm | - | - | - |
* Rain latest hour (hover to see other rain measurements)
** Current wind speed in m/s (hover to see current wind gust speed)